Погода в Виланкулуше

Мозамбик     21°59′59″S   35°19′08″E
темп.,
°C
ветер,
м/с
пор.,
м/с
влажн.,
%
обл.,
%
осадки,
мм/ч
давл.,
гПа
погр.,
м
14 мая, пт
пт1423:00+20всв35730 0.0 1019286
02:00+20св23780 0.0 1018264
05:00+18з12850 0.0 1018269
08:00+21з11717 0.0 1020255
11:00+26св33510 0.0 10191322
14:00+26всв54540 0.0 10171063
17:00+23св46640 0.0 1017400
20:00+22св46690 0.0 1018338
15 мая, сб
сб1523:00+22ссв35740 0.0 1017259
02:00+21с35820 0.0 1016231
05:00+20с35870 0.0 1016236
08:00+25ссз467119 0.0 1017887
11:00+29ссв56525 0.0 10161670
14:00+28ссв77563 0.0 1013930
17:00+25ссв610700 0.0 1013465
20:00+24ссв610750 0.0 1014437
16 мая, вс
вс1623:00+23с48840 0.0 1014351
02:00+22с37890 0.0 1013238
05:00+22сз36939 0.0 1013223
08:00+25с48780 0.0 1015598
11:00+31с56474 0.0 10131464
14:00+30ссв77525 0.0 1011820
17:00+25ссв510735 0.0 1011376
20:00+24ссв49825 0.0 1013301
17 мая, пн
пн1723:00+22сз239222 0.0 1014119
02:00+21сз259515 0.0 1013137
05:00+21ссз259625 0.0 1014135
08:00+25з228317 0.0 1016301
11:00+30св33557 0.0 10151213
14:00+29св65630 0.0 1014616
17:00+26ссв47780 0.0 1015320
20:00+23ююв11922 0.1 101761
18 мая, вт
вт1823:00+23юв22910 0.2 101845
02:00+22ююв24936 0.2 1018172
05:00+22ююв249444 0.0 1018215
08:00+25ююв348133 0.3 1020396
11:00+27юв336650 0.4 10201020
14:00+27в336320 1.0 1019871
17:00+25в46773 0.0 1019359
20:00+23в24855 0.0 1020214